CST,Max TemperatureF,Mean TemperatureF,Min TemperatureF,Max Dew PointF,MeanDew PointF,Min DewpointF,Max Humidity, Mean Humidity, Min Humidity, Max Sea Level PressureIn, Mean Sea Level PressureIn, Min Sea Level PressureIn, Max VisibilityMiles, Mean VisibilityMiles, Min VisibilityMiles, Max Wind SpeedMPH, Mean Wind SpeedMPH, Max Gust SpeedMPH,PrecipitationIn, CloudCover, Events, WindDirDegrees
2014-2-1,21,14,8,18,10,3,93,86,79,30.08,30.01,29.90,10,6,1,12,3,,0.00,6,Snow,329
2014-2-2,14,7,0,10,1,-6,86,77,57,30.29,30.20,30.07,10,10,10,12,8,,0.00,0,,287
2014-2-3,17,4,-9,1,-4,-15,92,70,49,30.34,30.31,30.27,10,10,10,9,4,,0.00,1,,246
2014-2-4,19,10,0,16,6,-6,86,74,62,30.39,30.29,30.15,10,10,10,10,4,,0.00,4,Snow,330
2014-2-5,19,12,5,18,9,1,93,83,67,30.40,30.26,30.11,10,7,1,17,9,25,0.00,5,Snow,327
2014-2-6,5,0,-4,0,-7,-9,85,74,61,30.38,30.32,30.26,10,10,10,17,10,23,0.00,1,,265
2014-2-7,8,2,-4,-4,-6,-9,85,72,52,30.28,30.26,30.23,10,10,10,18,11,23,0.00,0,,229
2014-2-8,12,6,0,9,2,-6,92,83,72,30.27,30.18,30.10,10,7,1,7,3,,0.00,4,Snow,217
2014-2-9,15,8,1,7,1,-8,92,78,61,30.26,30.15,30.08,10,8,2,15,6,22,0.00,3,Snow,287
2014-2-10,3,-2,-7,-8,-10,-15,78,68,61,30.43,30.35,30.26,10,10,10,13,9,,0.00,0,,289
2014-2-11,12,2,-9,-6,-9,-15,78,66,44,30.47,30.40,30.32,10,10,10,9,6,,0.00,0,,240
2014-2-12,17,8,0,14,4,-8,86,74,67,30.32,30.14,29.99,10,9,2,12,5,,0.00,6,Snow,194
2014-2-13,26,22,17,21,13,5,86,72,54,29.98,29.70,29.48,10,8,1,22,6,28,0.00,8,Snow,215
2014-2-14,19,14,8,14,7,1,92,75,63,29.94,29.75,29.55,10,10,7,16,11,24,0.00,2,,293
2014-2-15,19,8,-4,14,5,-6,100,76,53,30.06,29.97,29.93,10,9,2,12,7,,0.00,4,Snow,231
2014-2-16,21,16,12,14,10,7,100,82,58,30.27,30.13,29.93,10,8,4,10,4,16,0.00,6,Snow,346
2014-2-17,21,18,15,19,18,12,100,91,79,30.24,29.90,29.68,10,4,0,20,6,29,0.00,8,Snow,160
2014-2-18,44,30,17,28,24,16,93,79,49,29.88,29.71,29.59,10,8,3,15,10,23,0.00,3,,230
2014-2-19,42,35,28,30,25,19,93,75,39,29.94,29.84,29.63,10,10,4,13,8,,0.00,1,Rain-Snow,229
2014-2-20,37,34,30,37,31,27,100,92,80,29.90,29.48,29.13,10,6,0,28,9,44,0.18,7,Fog-Rain-Snow,140
2014-2-21,32,24,17,30,16,9,93,73,59,29.73,29.49,29.15,10,9,1,29,23,40,0.00,4,Snow,243
2014-2-22,26,20,14,10,9,7,73,64,47,30.04,29.90,29.73,10,10,10,21,15,31,0.00,0,,248
2014-2-23,21,14,6,9,5,0,79,67,53,30.16,30.11,30.04,10,10,10,18,14,26,0.00,0,,266
2014-2-24,19,12,6,5,4,0,79,65,53,30.21,30.18,30.15,10,10,10,17,11,26,0.00,2,,278
2014-2-25,14,8,1,3,-2,-8,79,63,52,30.20,30.15,30.09,10,10,10,21,12,25,0.00,1,,290
2014-2-26,12,4,-5,9,-5,-11,85,65,44,30.18,29.87,29.56,10,10,1,23,14,32,0.00,2,Snow,258
2014-2-27,10,2,-5,5,-12,-20,79,56,33,30.17,30.00,29.60,10,9,0,30,14,39,0.00,1,Snow,304
2014-2-28,21,7,-7,18,1,-15,93,72,49,30.17,30.06,29.96,10,8,1,14,2,18,0.00,5,Snow,145